TimeEST,TemperatureF,Dew PointF,Humidity,Sea Level PressureIn,VisibilityMPH,Wind Direction,Wind SpeedMPH,Gust SpeedMPH,PrecipitationIn,Events,Conditions,WindDirDegrees,DateUTC
12:54 AM,53.1,48.0,83,30.12,10.0,South,3.5,-,N/A,,Overcast,180,2011-11-29 05:54:00
1:54 AM,54.0,48.9,83,30.12,10.0,Calm,Calm,-,N/A,,Mostly Cloudy,0,2011-11-29 06:54:00
2:54 AM,54.0,50.0,86,30.12,10.0,SW,4.6,-,N/A,,Mostly Cloudy,220,2011-11-29 07:54:00
3:54 AM,54.0,50.0,86,30.11,10.0,Calm,Calm,-,N/A,,Mostly Cloudy,0,2011-11-29 08:54:00
4:54 AM,52.0,48.9,89,30.11,10.0,SSE,3.5,-,N/A,,Mostly Cloudy,160,2011-11-29 09:54:00
5:54 AM,52.0,50.0,93,30.11,9.0,South,3.5,-,N/A,,Mostly Cloudy,170,2011-11-29 10:54:00
6:54 AM,53.1,51.1,93,30.11,10.0,Calm,Calm,-,N/A,,Mostly Cloudy,0,2011-11-29 11:54:00
7:54 AM,54.0,52.0,93,30.11,10.0,SE,4.6,-,N/A,,Overcast,130,2011-11-29 12:54:00
8:54 AM,57.0,53.1,87,30.10,10.0,SE,4.6,-,N/A,,Overcast,130,2011-11-29 13:54:00
9:54 AM,59.0,54.0,83,30.10,10.0,East,4.6,-,N/A,,Overcast,90,2011-11-29 14:54:00
10:54 AM,59.0,54.0,83,30.07,10.0,East,4.6,-,N/A,,Overcast,80,2011-11-29 15:54:00
11:54 AM,63.0,55.0,75,30.05,10.0,ESE,4.6,-,N/A,,Overcast,120,2011-11-29 16:54:00
12:54 PM,64.9,54.0,68,30.03,10.0,South,8.1,-,N/A,,Overcast,170,2011-11-29 17:54:00
1:54 PM,64.9,51.1,61,30.00,10.0,SSE,10.4,-,N/A,,Overcast,160,2011-11-29 18:54:00
2:54 PM,61.0,48.9,64,29.98,10.0,ESE,11.5,-,N/A,,Mostly Cloudy,120,2011-11-29 19:54:00
3:54 PM,55.0,50.0,83,29.97,10.0,East,11.5,-,N/A,,Mostly Cloudy,100,2011-11-29 20:54:00
4:54 PM,55.9,51.1,84,29.96,10.0,ESE,10.4,-,N/A,,Mostly Cloudy,120,2011-11-29 21:54:00
5:54 PM,57.9,54.0,87,29.95,10.0,SE,9.2,-,N/A,,Mostly Cloudy,140,2011-11-29 22:54:00
6:54 PM,55.0,52.0,89,29.93,2.5,SE,8.1,-,0.02,Rain,Heavy Rain,130,2011-11-29 23:54:00
7:09 PM,55.4,53.6,94,29.92,4.0,ESE,4.6,-,0.04,Rain,Light Rain,120,2011-11-30 00:09:00
7:54 PM,54.0,52.0,93,29.88,10.0,ESE,4.6,-,0.04,,Scattered Clouds,110,2011-11-30 00:54:00
8:54 PM,54.0,52.0,93,29.86,10.0,ESE,9.2,-,N/A,,Scattered Clouds,120,2011-11-30 01:54:00
9:54 PM,55.0,52.0,89,29.81,10.0,ESE,10.4,-,N/A,,Mostly Cloudy,110,2011-11-30 02:54:00
10:54 PM,53.1,52.0,96,29.77,7.0,ESE,13.8,-,N/A,,Mostly Cloudy,110,2011-11-30 03:54:00
11:54 PM,54.0,52.0,93,29.72,7.0,ESE,12.7,-,N/A,,Overcast,110,2011-11-30 04:54:00